Time,TemperatureF,DewpointF,PressureIn,WindDirection,WindDirectionDegrees,WindSpeedMPH,WindSpeedGustMPH,Humidity,HourlyPrecipIn,Conditions,Clouds,dailyrainin,SoftwareType,DateUTC
2013-09-08 00:04:00,58.1,57.3,29.96,North,349,2.0,10.0,97,0.00,,,0.00,Wunderground v.1.15,2013-09-08 07:04:00,
2013-09-08 00:10:00,58.0,57.2,29.96,North,11,3.0,3.0,97,0.00,,,0.00,Wunderground v.1.15,2013-09-08 07:10:00,
2013-09-08 00:16:00,58.0,57.2,29.96,NNE,15,3.0,5.0,97,0.00,,,0.00,Wunderground v.1.15,2013-09-08 07:16:00,
2013-09-08 00:21:00,58.0,57.2,29.96,NNE,15,3.0,3.0,97,0.00,,,0.00,Wunderground v.1.15,2013-09-08 07:21:00,
2013-09-08 00:27:00,58.0,57.2,29.97,NNE,16,3.0,4.0,97,0.00,,,0.00,Wunderground v.1.15,2013-09-08 07:27:00,
2013-09-08 00:33:00,58.2,57.4,29.97,NNE,16,3.0,3.0,97,0.00,,,0.00,Wunderground v.1.15,2013-09-08 07:33:00,
2013-09-08 00:39:00,58.3,57.5,29.97,NNE,16,3.0,5.0,97,0.00,,,0.00,Wunderground v.1.15,2013-09-08 07:39:00,
2013-09-08 00:45:00,58.4,57.6,29.97,North,5,3.0,5.0,97,0.00,,,0.00,Wunderground v.1.15,2013-09-08 07:45:00,
2013-09-08 00:51:00,58.3,57.5,29.97,North,5,3.0,3.0,97,0.00,,,0.00,Wunderground v.1.15,2013-09-08 07:51:00,
2013-09-08 00:56:00,58.0,57.2,29.97,North,5,2.0,3.0,97,0.00,,,0.00,Wunderground v.1.15,2013-09-08 07:56:00,
2013-09-08 01:02:00,57.6,56.8,29.97,NNE,12,3.0,7.0,97,0.00,,,0.00,Wunderground v.1.15,2013-09-08 08:02:00,
2013-09-08 01:08:00,57.7,56.9,29.97,NNE,13,3.0,7.0,97,0.00,,,0.00,Wunderground v.1.15,2013-09-08 08:08:00,
2013-09-08 01:14:00,57.6,56.8,29.97,NNE,14,3.0,7.0,97,0.00,,,0.00,Wunderground v.1.15,2013-09-08 08:14:00,
2013-09-08 01:20:00,57.5,56.9,29.97,NNE,14,2.0,7.0,98,0.00,,,0.00,Wunderground v.1.15,2013-09-08 08:20:00,
2013-09-08 01:26:00,57.7,57.1,29.97,NNE,14,3.0,7.0,98,0.00,,,0.00,Wunderground v.1.15,2013-09-08 08:26:00,
2013-09-08 01:32:00,57.7,57.1,29.97,NNE,15,3.0,7.0,98,0.00,,,0.00,Wunderground v.1.15,2013-09-08 08:32:00,
2013-09-08 01:38:00,57.8,57.2,29.97,NE,46,4.0,7.0,98,0.00,,,0.00,Wunderground v.1.15,2013-09-08 08:38:00,
2013-09-08 01:43:00,57.9,57.3,29.97,ENE,63,5.0,7.0,98,0.00,,,0.00,Wunderground v.1.15,2013-09-08 08:43:00,
2013-09-08 01:49:00,57.9,57.3,29.97,ENE,64,6.0,8.0,98,0.00,,,0.00,Wunderground v.1.15,2013-09-08 08:49:00,
2013-09-08 01:55:00,57.8,57.2,29.98,ENE,60,4.0,7.0,98,0.00,,,0.00,Wunderground v.1.15,2013-09-08 08:55:00,
2013-09-08 02:01:00,57.6,57.0,29.98,NNE,33,3.0,7.0,98,0.00,,,0.00,Wunderground v.1.15,2013-09-08 09:01:00,
2013-09-08 02:07:00,57.5,56.9,29.97,NE,42,4.0,7.0,98,0.00,,,0.00,Wunderground v.1.15,2013-09-08 09:07:00,
2013-09-08 02:13:00,57.5,56.9,29.97,NE,41,4.0,7.0,98,0.00,,,0.00,Wunderground v.1.15,2013-09-08 09:13:00,
2013-09-08 02:19:00,57.5,56.9,29.97,NE,43,5.0,7.0,98,0.00,,,0.00,Wunderground v.1.15,2013-09-08 09:19:00,
2013-09-08 02:25:00,57.5,56.9,29.97,ENE,64,5.0,7.0,98,0.00,,,0.00,Wunderground v.1.15,2013-09-08 09:25:00,
2013-09-08 02:31:00,57.5,56.9,29.97,ENE,65,6.0,12.0,98,0.00,,,0.00,Wunderground v.1.15,2013-09-08 09:31:00,
2013-09-08 02:36:00,57.5,56.9,29.97,ENE,57,7.0,12.0,98,0.00,,,0.00,Wunderground v.1.15,2013-09-08 09:36:00,
2013-09-08 02:42:00,57.5,56.9,29.97,ENE,58,7.0,8.0,98,0.00,,,0.00,Wunderground v.1.15,2013-09-08 09:42:00,
2013-09-08 02:48:00,57.5,56.9,29.97,NE,51,6.0,8.0,98,0.00,,,0.00,Wunderground v.1.15,2013-09-08 09:48:00,
2013-09-08 02:54:00,57.3,56.7,29.97,NE,39,3.0,7.0,98,0.00,,,0.00,Wunderground v.1.15,2013-09-08 09:54:00,
2013-09-08 03:00:00,57.3,56.7,29.98,NE,51,3.0,7.0,98,0.00,,,0.00,Wunderground v.1.15,2013-09-08 10:00:00,
2013-09-08 03:05:00,57.3,56.7,29.98,NE,49,4.0,7.0,98,0.00,,,0.00,Wunderground v.1.15,2013-09-08 10:05:00,
2013-09-08 03:11:00,57.2,56.6,29.98,NE,42,3.0,7.0,98,0.00,,,0.00,Wunderground v.1.15,2013-09-08 10:11:00,
2013-09-08 03:17:00,57.2,56.6,29.98,NNE,30,3.0,7.0,98,0.00,,,0.00,Wunderground v.1.15,2013-09-08 10:17:00,
2013-09-08 03:23:00,57.1,56.5,29.98,NNE,30,3.0,7.0,98,0.00,,,0.00,Wunderground v.1.15,2013-09-08 10:23:00,
2013-09-08 03:29:00,56.8,56.2,29.97,NNE,28,3.0,7.0,98,0.00,,,0.00,Wunderground v.1.15,2013-09-08 10:29:00,
2013-09-08 03:35:00,56.7,56.1,29.97,NNE,28,4.0,7.0,98,0.00,,,0.00,Wunderground v.1.15,2013-09-08 10:35:00,
2013-09-08 03:40:00,56.6,56.3,29.97,NNE,31,4.0,7.0,99,0.00,,,0.00,Wunderground v.1.15,2013-09-08 10:40:00,
2013-09-08 03:46:00,56.6,56.3,29.97,NNE,27,3.0,7.0,99,0.00,,,0.00,Wunderground v.1.15,2013-09-08 10:46:00,
2013-09-08 03:52:00,56.5,56.2,29.98,NNE,27,2.0,7.0,99,0.00,,,0.00,Wunderground v.1.15,2013-09-08 10:52:00,
2013-09-08 03:58:00,56.4,56.1,29.98,NNE,26,2.0,7.0,99,0.00,,,0.00,Wunderground v.1.15,2013-09-08 10:58:00,
2013-09-08 04:04:00,56.3,56.0,29.98,North,360,3.0,7.0,99,0.00,,,0.00,Wunderground v.1.15,2013-09-08 11:04:00,
2013-09-08 04:10:00,56.3,56.0,29.98,North,5,3.0,7.0,99,0.00,,,0.00,Wunderground v.1.15,2013-09-08 11:10:00,
2013-09-08 04:16:00,56.2,55.9,29.98,North,5,3.0,7.0,99,0.00,,,0.00,Wunderground v.1.15,2013-09-08 11:16:00,
2013-09-08 04:21:00,56.1,55.8,29.98,North,5,3.0,7.0,99,0.00,,,0.00,Wunderground v.1.15,2013-09-08 11:21:00,
2013-09-08 04:27:00,56.0,55.7,29.98,North,5,3.0,7.0,99,0.00,,,0.00,Wunderground v.1.15,2013-09-08 11:27:00,
2013-09-08 04:33:00,56.1,55.8,29.98,North,11,3.0,7.0,99,0.00,,,0.00,Wunderground v.1.15,2013-09-08 11:33:00,
2013-09-08 04:39:00,56.2,55.9,29.98,NNE,13,3.0,7.0,99,0.00,,,0.00,Wunderground v.1.15,2013-09-08 11:39:00,
2013-09-08 04:45:00,56.4,56.1,29.98,NNE,13,3.0,7.0,99,0.00,,,0.00,Wunderground v.1.15,2013-09-08 11:45:00,
2013-09-08 04:51:00,56.4,56.1,29.99,NNE,20,4.0,7.0,99,0.00,,,0.00,Wunderground v.1.15,2013-09-08 11:51:00,
2013-09-08 04:57:00,56.4,56.1,29.98,NNE,23,4.0,7.0,99,0.00,,,0.00,Wunderground v.1.15,2013-09-08 11:57:00,
2013-09-08 05:03:00,56.6,56.3,29.98,NNE,22,4.0,7.0,99,0.00,,,0.00,Wunderground v.1.15,2013-09-08 12:03:00,
2013-09-08 05:09:00,56.7,56.4,29.98,NNE,31,4.0,7.0,99,0.00,,,0.00,Wunderground v.1.15,2013-09-08 12:09:00,
2013-09-08 05:14:00,56.7,56.4,29.98,NE,38,4.0,7.0,99,0.00,,,0.00,Wunderground v.1.15,2013-09-08 12:14:00,
2013-09-08 05:20:00,56.7,56.4,29.98,NE,39,4.0,4.0,99,0.00,,,0.00,Wunderground v.1.15,2013-09-08 12:20:00,
2013-09-08 05:26:00,56.8,56.5,29.98,NE,42,4.0,7.0,99,0.00,,,0.00,Wunderground v.1.15,2013-09-08 12:26:00,
2013-09-08 05:32:00,56.7,56.4,29.98,NE,42,4.0,7.0,99,0.00,,,0.00,Wunderground v.1.15,2013-09-08 12:32:00,
2013-09-08 05:38:00,56.6,56.3,29.99,NE,42,3.0,7.0,99,0.00,,,0.00,Wunderground v.1.15,2013-09-08 12:38:00,
2013-09-08 05:43:00,56.5,56.2,29.99,NE,41,3.0,7.0,99,0.00,,,0.00,Wunderground v.1.15,2013-09-08 12:43:00,
2013-09-08 05:48:00,56.3,56.0,29.99,NNE,24,3.0,7.0,99,0.00,,,0.00,Wunderground v.1.15,2013-09-08 12:48:00,
2013-09-08 05:54:00,56.3,56.0,29.99,NNE,16,3.0,7.0,99,0.00,,,0.00,Wunderground v.1.15,2013-09-08 12:54:00,
2013-09-08 06:00:00,56.1,55.8,29.99,North,5,4.0,7.0,99,0.00,,,0.00,Wunderground v.1.15,2013-09-08 13:00:00,
2013-09-08 06:06:00,56.0,55.7,29.99,NNE,13,4.0,8.0,99,0.00,,,0.00,Wunderground v.1.15,2013-09-08 13:06:00,
2013-09-08 06:12:00,55.9,55.6,29.99,NNE,13,3.0,7.0,99,0.00,,,0.00,Wunderground v.1.15,2013-09-08 13:12:00,
2013-09-08 06:17:00,55.8,55.5,29.99,NNE,13,3.0,7.0,99,0.00,,,0.00,Wunderground v.1.15,2013-09-08 13:17:00,
2013-09-08 06:23:00,55.7,55.4,29.99,NNE,15,3.0,7.0,99,0.00,,,0.00,Wunderground v.1.15,2013-09-08 13:23:00,
2013-09-08 06:29:00,55.7,55.4,29.99,NNE,13,3.0,7.0,99,0.00,,,0.00,Wunderground v.1.15,2013-09-08 13:29:00,
2013-09-08 06:35:00,55.7,55.4,29.99,NNE,19,3.0,7.0,99,0.00,,,0.00,Wunderground v.1.15,2013-09-08 13:35:00,
2013-09-08 06:41:00,55.8,55.5,29.99,NNE,19,3.0,7.0,99,0.00,,,0.00,Wunderground v.1.15,2013-09-08 13:41:00,
2013-09-08 06:47:00,55.7,55.4,30.00,NNE,19,2.0,7.0,99,0.00,,,0.00,Wunderground v.1.15,2013-09-08 13:47:00,
2013-09-08 06:53:00,55.4,55.1,30.00,NNE,19,2.0,7.0,99,0.00,,,0.00,Wunderground v.1.15,2013-09-08 13:53:00,
2013-09-08 06:58:00,55.3,55.0,30.00,NNE,19,3.0,7.0,99,0.00,,,0.00,Wunderground v.1.15,2013-09-08 13:58:00,
2013-09-08 07:03:00,55.4,55.1,30.00,NNE,19,3.0,7.0,99,0.00,,,0.00,Wunderground v.1.15,2013-09-08 14:03:00,
2013-09-08 07:09:00,55.4,55.1,30.00,NNE,23,3.0,7.0,99,0.00,,,0.00,Wunderground v.1.15,2013-09-08 14:09:00,
2013-09-08 07:15:00,55.5,55.2,30.00,NNE,23,3.0,7.0,99,0.00,,,0.00,Wunderground v.1.15,2013-09-08 14:15:00,
2013-09-08 07:21:00,55.6,55.3,30.00,NNE,23,3.0,7.0,99,0.00,,,0.00,Wunderground v.1.15,2013-09-08 14:21:00,
2013-09-08 07:27:00,55.8,55.5,30.00,NNE,23,3.0,7.0,99,0.00,,,0.00,Wunderground v.1.15,2013-09-08 14:27:00,
2013-09-08 07:33:00,56.2,56.2,30.00,NE,38,4.0,7.0,100,0.00,,,0.00,Wunderground v.1.15,2013-09-08 14:33:00,
2013-09-08 07:39:00,56.4,56.1,30.00,ENE,66,6.0,11.0,99,0.00,,,0.00,Wunderground v.1.15,2013-09-08 14:39:00,
2013-09-08 07:44:00,56.4,56.1,30.00,ENE,67,8.0,9.0,99,0.00,,,0.00,Wunderground v.1.15,2013-09-08 14:44:00,
2013-09-08 07:50:00,56.4,56.1,30.00,ENE,64,6.0,6.0,99,0.00,,,0.00,Wunderground v.1.15,2013-09-08 14:50:00,
2013-09-08 07:56:00,56.4,56.1,29.99,ENE,68,5.0,9.0,99,0.00,,,0.00,Wunderground v.1.15,2013-09-08 14:56:00,
2013-09-08 08:02:00,56.3,56.0,30.00,ENE,69,8.0,8.0,99,0.00,,,0.00,Wunderground v.1.15,2013-09-08 15:02:00,
2013-09-08 08:08:00,56.5,56.2,30.00,ENE,57,6.0,8.0,99,0.00,,,0.00,Wunderground v.1.15,2013-09-08 15:08:00,
2013-09-08 08:14:00,56.7,56.7,30.00,NE,49,4.0,7.0,100,0.00,,,0.00,Wunderground v.1.15,2013-09-08 15:14:00,
2013-09-08 08:19:00,56.7,56.7,30.00,NE,41,3.0,3.0,100,0.00,,,0.00,Wunderground v.1.15,2013-09-08 15:19:00,
2013-09-08 08:25:00,56.6,56.6,30.00,NE,40,3.0,7.0,100,0.00,,,0.00,Wunderground v.1.15,2013-09-08 15:25:00,
2013-09-08 08:31:00,56.5,56.5,30.00,NE,40,3.0,7.0,100,0.00,,,0.00,Wunderground v.1.15,2013-09-08 15:31:00,
2013-09-08 08:37:00,56.3,56.0,30.00,NE,40,2.0,7.0,99,0.00,,,0.00,Wunderground v.1.15,2013-09-08 15:37:00,
2013-09-08 08:43:00,56.3,56.0,30.00,NE,40,3.0,7.0,99,0.00,,,0.00,Wunderground v.1.15,2013-09-08 15:43:00,
2013-09-08 08:49:00,56.5,56.2,30.00,NE,38,3.0,7.0,99,0.00,,,0.00,Wunderground v.1.15,2013-09-08 15:49:00,
2013-09-08 08:55:00,56.0,55.7,30.00,North,9,4.0,7.0,99,0.00,,,0.00,Wunderground v.1.15,2013-09-08 15:55:00,
2013-09-08 09:01:00,55.6,55.3,30.00,North,5,6.0,7.0,99,0.00,,,0.00,Wunderground v.1.15,2013-09-08 16:01:00,
2013-09-08 09:07:00,55.3,55.0,30.00,North,5,6.0,7.0,99,0.00,,,0.00,Wunderground v.1.15,2013-09-08 16:07:00,
2013-09-08 09:13:00,55.3,55.0,30.00,North,9,6.0,9.0,99,0.00,,,0.00,Wunderground v.1.15,2013-09-08 16:13:00,
2013-09-08 09:19:00,55.3,55.0,30.00,North,350,7.0,9.0,99,0.00,,,0.00,Wunderground v.1.15,2013-09-08 16:19:00,
2013-09-08 09:25:00,55.5,55.2,30.00,North,355,7.0,8.0,99,0.00,,,0.00,Wunderground v.1.15,2013-09-08 16:25:00,
2013-09-08 09:31:00,55.5,55.2,30.00,North,355,8.0,12.0,99,0.00,,,0.00,Wunderground v.1.15,2013-09-08 16:31:00,
2013-09-08 09:37:00,55.4,55.1,30.01,North,351,9.0,12.0,99,0.00,,,0.00,Wunderground v.1.15,2013-09-08 16:37:00,
2013-09-08 09:42:00,55.2,54.9,30.00,North,350,9.0,11.0,99,0.00,,,0.00,Wunderground v.1.15,2013-09-08 16:42:00,
2013-09-08 09:48:00,55.5,55.2,30.01,North,355,8.0,11.0,99,0.00,,,0.00,Wunderground v.1.15,2013-09-08 16:48:00,
2013-09-08 09:53:00,55.7,55.4,30.01,North,355,8.0,12.0,99,0.00,,,0.00,Wunderground v.1.15,2013-09-08 16:53:00,
2013-09-08 09:59:00,55.8,55.5,30.01,North,355,10.0,14.0,99,0.00,,,0.00,Wunderground v.1.15,2013-09-08 16:59:00,
2013-09-08 10:05:00,55.9,55.6,30.01,North,360,11.0,14.0,99,0.00,,,0.00,Wunderground v.1.15,2013-09-08 17:05:00,
2013-09-08 10:11:00,55.8,55.5,30.01,North,350,13.0,17.0,99,0.00,,,0.00,Wunderground v.1.15,2013-09-08 17:11:00,
2013-09-08 10:17:00,55.6,55.3,30.01,North,350,13.0,17.0,99,0.00,,,0.00,Wunderground v.1.15,2013-09-08 17:17:00,
2013-09-08 10:23:00,56.0,56.0,30.01,NNW,348,11.0,17.0,100,0.00,,,0.00,Wunderground v.1.15,2013-09-08 17:23:00,
2013-09-08 10:28:00,56.1,55.8,30.01,NNW,348,11.0,17.0,99,0.00,,,0.00,Wunderground v.1.15,2013-09-08 17:28:00,
2013-09-08 10:34:00,56.4,56.1,30.01,NNW,335,13.0,17.0,99,0.00,,,0.00,Wunderground v.1.15,2013-09-08 17:34:00,
2013-09-08 10:40:00,56.5,56.2,30.01,North,355,13.0,13.0,99,0.00,,,0.00,Wunderground v.1.15,2013-09-08 17:40:00,
2013-09-08 10:46:00,56.7,56.4,30.01,North,360,14.0,14.0,99,0.00,,,0.00,Wunderground v.1.15,2013-09-08 17:46:00,
2013-09-08 10:52:00,56.7,56.4,30.00,North,351,14.0,14.0,99,0.00,,,0.00,Wunderground v.1.15,2013-09-08 17:52:00,
2013-09-08 10:57:00,56.8,56.5,30.00,North,360,13.0,16.0,99,0.00,,,0.00,Wunderground v.1.15,2013-09-08 17:57:00,
2013-09-08 11:03:00,56.6,56.3,30.00,North,355,14.0,16.0,99,0.00,,,0.00,Wunderground v.1.15,2013-09-08 18:03:00,
2013-09-08 11:09:00,56.6,56.3,30.00,NNW,342,13.0,16.0,99,0.00,,,0.00,Wunderground v.1.15,2013-09-08 18:09:00,
2013-09-08 11:15:00,56.7,56.4,30.00,North,360,13.0,16.0,99,0.00,,,0.00,Wunderground v.1.15,2013-09-08 18:15:00,
2013-09-08 11:21:00,56.5,56.2,30.00,North,360,15.0,15.0,99,0.00,,,0.00,Wunderground v.1.15,2013-09-08 18:21:00,
2013-09-08 11:27:00,56.6,56.3,30.00,North,5,15.0,17.0,99,0.00,,,0.00,Wunderground v.1.15,2013-09-08 18:27:00,
2013-09-08 11:32:00,56.6,56.3,30.00,North,5,15.0,15.0,99,0.00,,,0.00,Wunderground v.1.15,2013-09-08 18:32:00,
2013-09-08 11:38:00,56.7,56.7,30.00,North,351,15.0,16.0,100,0.00,,,0.00,Wunderground v.1.15,2013-09-08 18:38:00,
2013-09-08 11:44:00,56.7,56.4,30.00,North,355,15.0,18.0,99,0.00,,,0.00,Wunderground v.1.15,2013-09-08 18:44:00,
2013-09-08 11:50:00,57.1,57.1,30.00,NNW,347,16.0,17.0,100,0.00,,,0.00,Wunderground v.1.15,2013-09-08 18:50:00,
2013-09-08 11:56:00,57.1,57.1,30.00,NNE,17,16.0,19.0,100,0.00,,,0.00,Wunderground v.1.15,2013-09-08 18:56:00,
2013-09-08 12:02:00,57.2,57.2,30.00,North,355,15.0,17.0,100,0.00,,,0.00,Wunderground v.1.15,2013-09-08 19:02:00,
2013-09-08 12:07:00,57.1,56.8,30.00,North,355,15.0,17.0,99,0.00,,,0.00,Wunderground v.1.15,2013-09-08 19:07:00,
2013-09-08 12:13:00,57.1,56.8,30.00,North,355,15.0,19.0,99,0.00,,,0.00,Wunderground v.1.15,2013-09-08 19:13:00,
2013-09-08 12:19:00,57.1,57.1,30.00,North,355,14.0,19.0,100,0.00,,,0.00,Wunderground v.1.15,2013-09-08 19:19:00,
2013-09-08 12:25:00,56.9,56.6,30.00,North,360,13.0,16.0,99,0.00,,,0.00,Wunderground v.1.15,2013-09-08 19:25:00,
2013-09-08 12:31:00,56.9,56.6,29.99,North,355,13.0,16.0,99,0.00,,,0.00,Wunderground v.1.15,2013-09-08 19:31:00,
2013-09-08 12:36:00,56.8,56.5,29.99,North,5,14.0,18.0,99,0.00,,,0.00,Wunderground v.1.15,2013-09-08 19:36:00,
2013-09-08 12:42:00,56.4,56.1,29.99,North,360,14.0,17.0,99,0.00,,,0.00,Wunderground v.1.15,2013-09-08 19:42:00,
2013-09-08 12:48:00,56.3,56.0,29.99,North,350,14.0,17.0,99,0.00,,,0.00,Wunderground v.1.15,2013-09-08 19:48:00,
2013-09-08 12:54:00,56.4,56.1,29.99,NNE,30,14.0,17.0,99,0.00,,,0.00,Wunderground v.1.15,2013-09-08 19:54:00,
2013-09-08 12:59:00,56.5,56.2,29.99,North,355,15.0,18.0,99,0.00,,,0.00,Wunderground v.1.15,2013-09-08 19:59:00,
2013-09-08 13:05:00,56.4,56.1,29.98,North,350,15.0,17.0,99,0.00,,,0.00,Wunderground v.1.15,2013-09-08 20:05:00,
2013-09-08 13:10:00,56.2,55.9,29.98,North,355,15.0,16.0,99,0.00,,,0.00,Wunderground v.1.15,2013-09-08 20:10:00,
2013-09-08 13:16:00,56.3,56.0,29.98,North,9,14.0,16.0,99,0.00,,,0.00,Wunderground v.1.15,2013-09-08 20:16:00,
2013-09-08 13:22:00,56.2,55.9,29.98,North,5,14.0,17.0,99,0.00,,,0.00,Wunderground v.1.15,2013-09-08 20:22:00,
2013-09-08 13:28:00,56.2,56.2,29.98,North,5,14.0,17.0,100,0.00,,,0.00,Wunderground v.1.15,2013-09-08 20:28:00,
2013-09-08 13:34:00,56.5,56.5,29.98,North,5,13.0,14.0,100,0.00,,,0.00,Wunderground v.1.15,2013-09-08 20:34:00,
2013-09-08 13:40:00,56.4,56.1,29.98,North,355,13.0,14.0,99,0.00,,,0.00,Wunderground v.1.15,2013-09-08 20:40:00,
2013-09-08 13:45:00,56.4,56.1,29.98,North,10,13.0,14.0,99,0.00,,,0.00,Wunderground v.1.15,2013-09-08 20:45:00,
2013-09-08 13:51:00,56.3,56.0,29.98,North,355,13.0,16.0,99,0.00,,,0.00,Wunderground v.1.15,2013-09-08 20:51:00,
2013-09-08 13:57:00,56.4,56.1,29.98,North,360,14.0,16.0,99,0.00,,,0.00,Wunderground v.1.15,2013-09-08 20:57:00,
2013-09-08 14:03:00,56.4,56.1,29.98,North,355,14.0,17.0,99,0.00,,,0.00,Wunderground v.1.15,2013-09-08 21:03:00,
2013-09-08 14:09:00,56.4,56.1,29.98,North,355,15.0,19.0,99,0.00,,,0.00,Wunderground v.1.15,2013-09-08 21:09:00,
2013-09-08 14:15:00,56.6,56.6,29.97,North,350,15.0,17.0,100,0.00,,,0.00,Wunderground v.1.15,2013-09-08 21:15:00,
2013-09-08 14:21:00,56.5,56.2,29.98,North,355,15.0,16.0,99,0.00,,,0.00,Wunderground v.1.15,2013-09-08 21:21:00,
2013-09-08 14:27:00,56.6,56.6,29.97,NNW,348,15.0,16.0,100,0.00,,,0.00,Wunderground v.1.15,2013-09-08 21:27:00,
2013-09-08 14:32:00,56.6,56.3,29.97,NNE,16,15.0,18.0,99,0.00,,,0.00,Wunderground v.1.15,2013-09-08 21:32:00,
2013-09-08 14:38:00,56.5,56.2,29.97,North,5,15.0,20.0,99,0.00,,,0.00,Wunderground v.1.15,2013-09-08 21:38:00,
2013-09-08 14:44:00,56.5,56.5,29.97,North,360,15.0,19.0,100,0.00,,,0.00,Wunderground v.1.15,2013-09-08 21:44:00,
2013-09-08 14:50:00,56.6,56.6,29.97,North,355,16.0,16.0,100,0.00,,,0.00,Wunderground v.1.15,2013-09-08 21:50:00,
2013-09-08 14:57:00,56.5,56.2,29.97,NNE,21,17.0,18.0,99,0.00,,,0.00,Wunderground v.1.15,2013-09-08 21:57:00,
2013-09-08 15:03:00,56.4,56.1,29.97,North,355,16.0,20.0,99,0.00,,,0.00,Wunderground v.1.15,2013-09-08 22:03:00,
2013-09-08 15:08:00,56.5,56.2,29.97,NNW,345,17.0,22.0,99,0.00,,,0.00,Wunderground v.1.15,2013-09-08 22:08:00,
2013-09-08 15:14:00,56.6,56.6,29.97,NNW,344,17.0,19.0,100,0.00,,,0.00,Wunderground v.1.15,2013-09-08 22:14:00,
2013-09-08 15:20:00,56.5,56.5,29.97,NNE,16,16.0,16.0,100,0.00,,,0.00,Wunderground v.1.15,2013-09-08 22:20:00,
2013-09-08 15:26:00,56.6,56.6,29.96,North,355,16.0,18.0,100,0.00,,,0.00,Wunderground v.1.15,2013-09-08 22:26:00,
2013-09-08 15:31:00,56.8,56.8,29.96,NNW,340,17.0,17.0,100,0.00,,,0.00,Wunderground v.1.15,2013-09-08 22:31:00,
2013-09-08 15:36:00,57.1,56.8,29.96,NNE,18,18.0,20.0,99,0.00,,,0.00,Wunderground v.1.15,2013-09-08 22:36:00,
2013-09-08 15:42:00,57.5,57.2,29.96,North,355,19.0,22.0,99,0.00,,,0.00,Wunderground v.1.15,2013-09-08 22:42:00,
2013-09-08 15:48:00,57.8,57.5,29.96,NNW,346,17.0,22.0,99,0.00,,,0.00,Wunderground v.1.15,2013-09-08 22:48:00,
2013-09-08 15:54:00,58.0,57.7,29.95,North,355,15.0,18.0,99,0.00,,,0.00,Wunderground v.1.15,2013-09-08 22:54:00,
2013-09-08 16:00:00,58.2,57.6,29.95,North,355,15.0,15.0,98,0.00,,,0.00,Wunderground v.1.15,2013-09-08 23:00:00,
2013-09-08 16:06:00,58.4,57.8,29.95,North,360,14.0,19.0,98,0.00,,,0.00,Wunderground v.1.15,2013-09-08 23:06:00,
2013-09-08 16:11:00,58.6,58.0,29.95,North,355,13.0,13.0,98,0.00,,,0.00,Wunderground v.1.15,2013-09-08 23:11:00,
2013-09-08 16:17:00,59.0,58.4,29.95,NNE,17,10.0,13.0,98,0.00,,,0.00,Wunderground v.1.15,2013-09-08 23:17:00,
2013-09-08 16:23:00,59.6,58.7,29.94,North,9,7.0,8.0,97,0.00,,,0.00,Wunderground v.1.15,2013-09-08 23:23:00,
2013-09-08 16:29:00,60.2,59.1,29.94,NE,38,6.0,8.0,96,0.00,,,0.00,Wunderground v.1.15,2013-09-08 23:29:00,
2013-09-08 16:35:00,60.6,59.5,29.94,NW,324,6.0,9.0,96,0.00,,,0.00,Wunderground v.1.15,2013-09-08 23:35:00,
2013-09-08 16:41:00,60.9,59.2,29.93,North,355,7.0,13.0,94,0.00,,,0.00,Wunderground v.1.15,2013-09-08 23:41:00,
2013-09-08 16:46:00,60.7,58.7,29.93,North,350,10.0,18.0,93,0.00,,,0.00,Wunderground v.1.15,2013-09-08 23:46:00,
2013-09-08 16:52:00,60.1,58.1,29.93,North,360,13.0,20.0,93,0.00,,,0.00,Wunderground v.1.15,2013-09-08 23:52:00,
2013-09-08 16:58:00,59.4,57.7,29.93,North,351,17.0,20.0,94,0.00,,,0.00,Wunderground v.1.15,2013-09-08 23:58:00,
2013-09-08 17:04:00,59.1,57.7,29.93,NNW,346,18.0,23.0,95,0.00,,,0.00,Wunderground v.1.15,2013-09-09 00:04:00,
2013-09-08 17:10:00,59.1,58.0,29.93,North,5,18.0,21.0,96,0.00,,,0.00,Wunderground v.1.15,2013-09-09 00:10:00,
2013-09-08 17:16:00,59.1,57.7,29.93,North,11,16.0,21.0,95,0.00,,,0.00,Wunderground v.1.15,2013-09-09 00:16:00,
2013-09-08 17:21:00,58.8,57.7,29.93,NNW,342,17.0,20.0,96,0.00,,,0.00,Wunderground v.1.15,2013-09-09 00:21:00,
2013-09-08 17:27:00,58.8,57.7,29.93,North,360,17.0,20.0,96,0.00,,,0.00,Wunderground v.1.15,2013-09-09 00:27:00,
2013-09-08 17:32:00,58.7,57.6,29.93,North,5,17.0,22.0,96,0.00,,,0.00,Wunderground v.1.15,2013-09-09 00:32:00,
2013-09-08 17:38:00,58.6,57.5,29.93,North,9,19.0,23.0,96,0.00,,,0.00,Wunderground v.1.15,2013-09-09 00:38:00,
2013-09-08 17:43:00,58.5,57.7,29.93,North,5,19.0,24.0,97,0.00,,,0.00,Wunderground v.1.15,2013-09-09 00:43:00,
2013-09-08 17:49:00,58.4,57.6,29.93,North,360,18.0,24.0,97,0.00,,,0.00,Wunderground v.1.15,2013-09-09 00:49:00,
2013-09-08 17:55:00,58.4,57.6,29.93,North,355,16.0,19.0,97,0.00,,,0.00,Wunderground v.1.15,2013-09-09 00:55:00,
2013-09-08 18:01:00,58.4,57.6,29.93,NNE,22,15.0,16.0,97,0.00,,,0.00,Wunderground v.1.15,2013-09-09 01:01:00,
2013-09-08 18:07:00,58.3,57.5,29.93,North,351,12.0,17.0,97,0.00,,,0.00,Wunderground v.1.15,2013-09-09 01:07:00,
2013-09-08 18:12:00,58.3,57.5,29.93,NNE,13,11.0,12.0,97,0.00,,,0.00,Wunderground v.1.15,2013-09-09 01:12:00,
2013-09-08 18:18:00,58.2,57.4,29.93,NNE,30,10.0,16.0,97,0.00,,,0.00,Wunderground v.1.15,2013-09-09 01:18:00,
2013-09-08 18:24:00,58.1,57.3,29.93,NE,34,9.0,9.0,97,0.00,,,0.00,Wunderground v.1.15,2013-09-09 01:24:00,
2013-09-08 18:30:00,57.9,57.1,29.93,NNW,347,9.0,9.0,97,0.00,,,0.00,Wunderground v.1.15,2013-09-09 01:30:00,
2013-09-08 18:36:00,58.0,57.2,29.93,NE,38,7.0,9.0,97,0.00,,,0.00,Wunderground v.1.15,2013-09-09 01:36:00,
2013-09-08 18:42:00,58.0,57.2,29.93,North,9,6.0,8.0,97,0.00,,,0.00,Wunderground v.1.15,2013-09-09 01:42:00,
2013-09-08 18:48:00,57.9,57.1,29.93,North,11,8.0,12.0,97,0.00,,,0.00,Wunderground v.1.15,2013-09-09 01:48:00,
2013-09-08 18:53:00,57.8,57.0,29.93,North,355,9.0,13.0,97,0.00,,,0.00,Wunderground v.1.15,2013-09-09 01:53:00,
2013-09-08 18:58:00,57.5,56.7,29.93,North,349,10.0,14.0,97,0.00,,,0.00,Wunderground v.1.15,2013-09-09 01:58:00,
2013-09-08 19:04:00,57.3,56.5,29.93,North,351,10.0,10.0,97,0.00,,,0.00,Wunderground v.1.15,2013-09-09 02:04:00,
2013-09-08 19:10:00,57.2,56.4,29.93,NNW,347,8.0,9.0,97,0.00,,,0.00,Wunderground v.1.15,2013-09-09 02:10:00,
2013-09-08 19:16:00,57.0,56.2,29.94,NE,40,8.0,12.0,97,0.00,,,0.00,Wunderground v.1.15,2013-09-09 02:16:00,
2013-09-08 19:22:00,56.8,56.0,29.93,North,355,6.0,7.0,97,0.00,,,0.00,Wunderground v.1.15,2013-09-09 02:22:00,
2013-09-08 19:28:00,56.8,56.2,29.93,North,5,5.0,7.0,98,0.00,,,0.00,Wunderground v.1.15,2013-09-09 02:28:00,
2013-09-08 19:33:00,57.0,56.4,29.93,NNE,12,6.0,8.0,98,0.00,,,0.00,Wunderground v.1.15,2013-09-09 02:33:00,
2013-09-08 19:39:00,56.9,56.1,29.93,NNE,32,6.0,9.0,97,0.00,,,0.00,Wunderground v.1.15,2013-09-09 02:39:00,
2013-09-08 19:45:00,56.8,56.0,29.93,NNW,344,6.0,10.0,97,0.00,,,0.00,Wunderground v.1.15,2013-09-09 02:45:00,
2013-09-08 19:51:00,56.7,56.1,29.93,NNW,344,7.0,13.0,98,0.00,,,0.00,Wunderground v.1.15,2013-09-09 02:51:00,
2013-09-08 19:57:00,56.6,55.8,29.93,North,355,8.0,13.0,97,0.00,,,0.00,Wunderground v.1.15,2013-09-09 02:57:00,
2013-09-08 20:03:00,56.5,55.9,29.94,NNE,17,8.0,12.0,98,0.00,,,0.00,Wunderground v.1.15,2013-09-09 03:03:00,
2013-09-08 20:09:00,56.3,55.7,29.93,North,5,9.0,12.0,98,0.00,,,0.00,Wunderground v.1.15,2013-09-09 03:09:00,
2013-09-08 20:15:00,56.2,55.6,29.94,NNE,21,8.0,9.0,98,0.00,,,0.00,Wunderground v.1.15,2013-09-09 03:15:00,
2013-09-08 20:20:00,56.1,55.5,29.94,North,355,8.0,8.0,98,0.00,,,0.00,Wunderground v.1.15,2013-09-09 03:20:00,
2013-09-08 20:26:00,56.3,55.7,29.94,NNE,15,8.0,12.0,98,0.00,,,0.00,Wunderground v.1.15,2013-09-09 03:26:00,
2013-09-08 20:32:00,56.6,56.0,29.94,North,9,6.0,7.0,98,0.00,,,0.00,Wunderground v.1.15,2013-09-09 03:32:00,
2013-09-08 20:38:00,56.5,55.9,29.94,NE,38,7.0,11.0,98,0.00,,,0.00,Wunderground v.1.15,2013-09-09 03:38:00,
2013-09-08 20:44:00,56.6,56.0,29.94,NNE,26,6.0,7.0,98,0.00,,,0.00,Wunderground v.1.15,2013-09-09 03:44:00,
2013-09-08 20:50:00,56.7,56.1,29.94,NE,42,5.0,7.0,98,0.00,,,0.00,Wunderground v.1.15,2013-09-09 03:50:00,
2013-09-08 20:55:00,56.9,56.3,29.94,North,355,4.0,7.0,98,0.00,,,0.00,Wunderground v.1.15,2013-09-09 03:55:00,
2013-09-08 21:01:00,56.8,56.0,29.94,North,360,3.0,7.0,97,0.00,,,0.00,Wunderground v.1.15,2013-09-09 04:01:00,
2013-09-08 21:03:00,56.7,55.9,29.94,North,11,4.0,7.0,97,0.00,,,0.00,Wunderground v.1.15,2013-09-09 04:03:00,
2013-09-08 21:04:00,56.7,55.9,29.94,North,5,4.0,7.0,97,0.00,,,0.00,Wunderground v.1.15,2013-09-09 04:04:00,
2013-09-08 21:05:00,56.7,55.9,29.94,North,360,4.0,7.0,97,0.00,,,0.00,Wunderground v.1.15,2013-09-09 04:05:00,
2013-09-08 21:07:00,56.7,55.9,29.94,North,10,4.0,7.0,97,0.00,,,0.00,Wunderground v.1.15,2013-09-09 04:07:00,
2013-09-08 21:13:00,56.8,56.0,29.94,NNE,15,3.0,7.0,97,0.00,,,0.00,Wunderground v.1.15,2013-09-09 04:13:00,
2013-09-08 21:19:00,56.7,55.9,29.95,NNE,15,2.0,7.0,97,0.00,,,0.00,Wunderground v.1.15,2013-09-09 04:19:00,
2013-09-08 21:23:00,56.4,55.3,29.95,North,351,2.0,7.0,96,0.00,,,0.00,Wunderground v.1.15,2013-09-09 04:23:00,
2013-09-08 21:28:00,55.9,55.1,29.95,North,360,3.0,8.0,97,0.00,,,0.00,Wunderground v.1.15,2013-09-09 04:28:00,
2013-09-08 21:34:00,55.5,54.4,29.95,North,355,5.0,10.0,96,0.00,,,0.00,Wunderground v.1.15,2013-09-09 04:34:00,
2013-09-08 21:40:00,55.2,54.4,29.95,North,350,8.0,8.0,97,0.00,,,0.00,Wunderground v.1.15,2013-09-09 04:40:00,
2013-09-08 21:46:00,55.1,54.3,29.95,North,349,9.0,14.0,97,0.00,,,0.00,Wunderground v.1.15,2013-09-09 04:46:00,
2013-09-08 21:52:00,55.0,54.4,29.95,North,355,11.0,13.0,98,0.00,,,0.00,Wunderground v.1.15,2013-09-09 04:52:00,
2013-09-08 21:57:00,54.8,54.2,29.95,North,355,12.0,13.0,98,0.00,,,0.00,Wunderground v.1.15,2013-09-09 04:57:00,
2013-09-08 22:03:00,54.8,54.2,29.95,North,5,12.0,13.0,98,0.00,,,0.00,Wunderground v.1.15,2013-09-09 05:03:00,
2013-09-08 22:09:00,54.9,54.3,29.95,North,355,11.0,15.0,98,0.00,,,0.00,Wunderground v.1.15,2013-09-09 05:09:00,
2013-09-08 22:15:00,54.7,54.1,29.95,NNW,348,9.0,11.0,98,0.00,,,0.00,Wunderground v.1.15,2013-09-09 05:15:00,
2013-09-08 22:21:00,54.9,54.3,29.96,NNE,12,6.0,7.0,98,0.00,,,0.00,Wunderground v.1.15,2013-09-09 05:21:00,
2013-09-08 22:26:00,55.3,54.7,29.96,North,355,5.0,7.0,98,0.00,,,0.00,Wunderground v.1.15,2013-09-09 05:26:00,
2013-09-08 22:32:00,55.5,55.2,29.96,North,10,5.0,7.0,99,0.00,,,0.00,Wunderground v.1.15,2013-09-09 05:32:00,
2013-09-08 22:38:00,55.5,54.9,29.96,North,355,4.0,7.0,98,0.00,,,0.00,Wunderground v.1.15,2013-09-09 05:38:00,
2013-09-08 22:43:00,55.2,54.6,29.96,North,355,5.0,11.0,98,0.00,,,0.00,Wunderground v.1.15,2013-09-09 05:43:00,
2013-09-08 22:49:00,54.8,54.2,29.96,North,355,7.0,11.0,98,0.00,,,0.00,Wunderground v.1.15,2013-09-09 05:49:00,
2013-09-08 22:55:00,54.7,54.1,29.96,NNW,340,7.0,12.0,98,0.00,,,0.00,Wunderground v.1.15,2013-09-09 05:55:00,
2013-09-08 23:01:00,54.9,54.3,29.96,NNW,348,7.0,8.0,98,0.00,,,0.00,Wunderground v.1.15,2013-09-09 06:01:00,
2013-09-08 23:07:00,55.0,54.7,29.97,NNW,344,7.0,9.0,99,0.00,,,0.00,Wunderground v.1.15,2013-09-09 06:07:00,
2013-09-08 23:12:00,54.9,54.3,29.96,North,5,7.0,8.0,98,0.00,,,0.00,Wunderground v.1.15,2013-09-09 06:12:00,
2013-09-08 23:18:00,54.7,54.1,29.96,NNW,343,7.0,11.0,98,0.00,,,0.00,Wunderground v.1.15,2013-09-09 06:18:00,
2013-09-08 23:24:00,54.6,54.3,29.96,North,355,8.0,11.0,99,0.00,,,0.00,Wunderground v.1.15,2013-09-09 06:24:00,
2013-09-08 23:30:00,54.5,54.2,29.97,North,355,8.0,8.0,99,0.00,,,0.00,Wunderground v.1.15,2013-09-09 06:30:00,
2013-09-08 23:36:00,54.7,54.4,29.96,NNE,23,5.0,8.0,99,0.00,,,0.00,Wunderground v.1.15,2013-09-09 06:36:00,
2013-09-08 23:42:00,54.6,54.3,29.96,NNE,26,4.0,7.0,99,0.00,,,0.00,Wunderground v.1.15,2013-09-09 06:42:00,
2013-09-08 23:48:00,54.5,54.2,29.96,NNE,24,3.0,7.0,99,0.00,,,0.00,Wunderground v.1.15,2013-09-09 06:48:00,
2013-09-08 23:54:00,54.8,54.5,29.96,NE,46,4.0,7.0,99,0.00,,,0.00,Wunderground v.1.15,2013-09-09 06:54:00,